DECAYED
Showing default

SKYKRAFT-3C, 56228 (Decayed)

Orbit data source: Space-Track

SKYKRAFT-3C, 56228 was a payload satellite owned by SkyKraft (AU) in LEO that was launched on Mon, 12 Jun 2023 UTC via an FALCON 9 launch vehicle from the Air Force Western Test Range (AFWTR). Payload-class satellites include a variety of spacecraft equipped with specific instruments for various scientific and technological missions. These include communications satellites like Starlink; space stations such as the ISS; scientific satellites like the Hubble; Earth observation satellites from companies like Planet Labs, Umbra, and HawkEye 360; GPS; miniature CubeSats for education and research; and military/defense satellites.

Not visible in the next 10 days
Identifier
56228, 2023-084BM
Orbit
Decayed
Country
Flag of AUAU / AUS
Related business
Manufacturer
SkyKraft
Mission
Decayed Commercial Communications
Bus & Motor
SKYKRAFT, Unknown motor
Mass
~50 kg wet, ~50 kg dry
Launch date (UTC)
2023-06-12 (2 years ago)
Launch vehicle
FALCON 9
Launch site
Air Force Western Test Range (AFWTR)
Object type
Payload
Rocket body
Debris
Shape & HBR
Box, 0.3 m
Radar Cross Section
0.065 m², Medium (>0.1 m² and < 1m²)

Expand to show TLE details & history
Last TLE update: 8 months ago

TLE from 8 months ago
0 SKYKRAFT-3C
1 56228U 23084BM  25044.31472655  .09686312  25857-5  10612-2 0  9997
2 56228  97.5205 181.8573 0010519 287.4739  72.5409 16.37194898 93580
Epoch: 2025-02-13T07:33Z
TLE epoch observation values (Epoch: 2025-02-13T07:33:12.373Z)
Latitude
-0°
Longitude
-75.03687°
Altitude
174.458 km
Speed
7.803 km/s
True Right ascension
12h 07m 25s
True Declination
0° 00' 00"
Sunlit
Object was in full shadow at epoch
Visualization orbit readout
Latitude
Unknown
Longitude
Unknown
Altitude
Unknown
Speed
Unknown
Apparent Right ascension
Unknown
Apparent Declination
Unknown
Sunlit
N/A
Visualization observer readout
Local Sidereal Time
19:15:35
Azimuth
Unknown
Elevation
Unknown
Doppler factor
Unknown
Orbital elements
Apogee altitude
176.98 km
Perigee altitude
163.204 km
Semi-major axis
6,548.229 km
Eccentricity
0.00105
Inclination
97.5205°
RAAN
181.8573°
Arg. of periapsis
287.4739°
True anomaly
72.65593°
Mean anomaly
72.5409°
Eccentric anomaly
72.59841°
Mean motion
4.09598 °/min
Orbital period
87.89 mins
BSTAR
0.0010612
Loading maneuver chart data...
Computing Atmospheric mass density...
Loading historical data...
Loading historical data...
Loading historical data...
Loading historical data...
Loading historical data...
Loading historical data...
Loading historical data...

Documentation

Showing up to 5 results
|